KT2UU-13 Weather Reports


time (UTC)temp
C
wind
direction
speed
KPH
gust
KPH
rain 1hr
cm
rain 24hr
cm
rain mn
cm
humidity
%
barometer
mb
20260505174005 25 81 1.6 9.7 0.00 0.00 0.00 48 1016.2
20260505173502 24 336 0.0 4.8 0.00 0.00 0.00 50 1016.3
20260505172958 24 101 1.6 3.2 0.00 0.00 0.00 50 1016.3
20260505172457 24 101 1.6 6.4 0.00 0.00 0.00 50 1016.3
20260505171956 23 62 0.0 0.0 0.00 0.00 0.00 52 1016.7
20260505171448 24 350 0.0 3.2 0.00 0.00 0.00 52 1016.5
20260505170944 23 3 3.2 9.7 0.00 0.00 0.00 52 1016.6
20260505170441 23 126 1.6 9.7 0.00 0.00 0.00 50 1016.5
20260505165936 23 102 1.6 4.8 0.00 0.00 0.00 50 1016.7
20260505165433 23 342 0.0 4.8 0.00 0.00 0.00 50 1016.7
20260505164928 23 19 1.6 3.2 0.00 0.00 0.00 48 1016.8
20260505164425 23 103 4.8 17.7 0.00 0.00 0.00 50 1016.5
20260505163923 23 79 1.6 4.8 0.00 0.00 0.00 47 1016.6
20260505163422 23 56 3.2 4.8 0.00 0.00 0.00 51 1016.8
20260505162920 23 144 1.6 4.8 0.00 0.00 0.00 49 1016.7
20260505162416 23 351 0.0 1.6 0.00 0.00 0.00 52 1016.5
20260505161913 23 116 1.6 3.2 0.00 0.00 0.00 51 1016.3
20260505161409 23 355 0.0 3.2 0.00 0.00 0.00 57 1016.0
20260505160907 23 45 0.0 1.6 0.00 0.00 0.00 52 1016.2
20260505160405 22 153 4.8 6.4 0.00 0.00 0.00 53 1016.3
20260505153344 21 147 4.8 4.8 0.00 0.00 0.00 60 1016.8
20260505152840 21 23 0.0 3.2 0.00 0.00 0.00 63 1017.1
20260505152338 21 2 0.0 0.0 0.00 0.00 0.00 63 1017.0
20260505151832 21 3 0.0 1.6 0.00 0.00 0.00 65 1016.8
20260505151328 21 355 0.0 0.0 0.00 0.00 0.00 61 1016.8
20260505150825 21 354 0.0 0.0 0.00 0.00 0.00 63 1016.9
20260505150322 21 352 0.0 1.6 0.00 0.00 0.00 61 1016.6
20260505140247 17 227 0.0 1.6 0.00 0.00 0.00 71 1017.1
20260505130211 16 140 1.6 1.6 0.00 0.00 0.00 75 1016.5
20260505124701 16 138 1.6 3.2 0.00 0.00 0.00 73 1016.1
20260505124157 15 135 0.0 0.0 0.00 0.00 0.00 76 1015.8
20260505123654 15 135 0.0 0.0 0.00 0.00 0.00 76 1016.1
20260505123150 15 135 0.0 0.0 0.00 0.00 0.00 77 1016.0
20260505122647 14 135 0.0 0.0 0.00 0.00 0.00 81 1016.0
20260505122144 15 135 0.0 0.0 0.00 0.00 0.00 81 1016.1
20260505121640 15 135 0.0 0.0 0.00 0.00 0.00 81 1015.9
20260505121137 15 135 0.0 0.0 0.00 0.00 0.00 79 1015.8
20260505120633 16 135 0.0 0.0 0.00 0.00 0.00 78 1015.6
20260505120130 15 135 0.0 0.0 0.00 0.00 0.00 77 1015.7
20260505115624 15 135 0.0 0.0 0.00 0.00 0.00 74 1015.8
20260505115121 16 135 0.0 0.0 0.00 0.00 0.00 75 1015.6
20260505114618 15 135 0.0 0.0 0.00 0.00 0.00 82 1015.6
20260505114114 13 135 0.0 0.0 0.00 0.00 0.00 88 1015.6
20260505113611 11 135 0.0 0.0 0.00 0.00 0.00 92 1015.7
20260505113108 11 135 0.0 0.0 0.00 0.00 0.00 92 1015.5
20260505112604 10 135 0.0 0.0 0.00 0.00 0.00 93 1015.3
20260505112103 10 135 0.0 0.0 0.00 0.00 0.00 93 1015.2
20260505111601 10 135 0.0 0.0 0.00 0.00 0.00 92 1015.3
20260505111057 10 135 0.0 0.0 0.00 0.00 0.00 92 1015.1
20260505110554 9 135 0.0 0.0 0.00 0.00 0.00 93 1015.1
20260505102027 9 135 0.0 0.0 0.00 0.00 0.00 92 1015.0
20260505101525 9 135 0.0 0.0 0.00 0.00 0.00 92 1014.9
20260505101021 9 135 0.0 0.0 0.00 0.00 0.00 92 1015.0
20260505100519 9 135 0.0 0.0 0.00 0.00 0.00 92 1014.9
20260505100015 9 135 0.0 0.0 0.00 0.00 0.00 91 1014.8
20260505095511 9 135 0.0 0.0 0.00 0.00 0.00 91 1014.8
20260505095008 9 135 0.0 0.0 0.00 0.00 0.00 92 1015.1
20260505094504 9 135 0.0 0.0 0.00 0.00 0.00 91 1015.0
20260505094001 9 135 0.0 0.0 0.00 0.00 0.00 91 1015.3
20260505093457 10 135 0.0 0.0 0.00 0.00 0.00 91 1015.3
20260505092955 10 135 0.0 0.0 0.00 0.00 0.00 91 1015.3
20260505092452 10 135 0.0 0.0 0.00 0.00 0.00 90 1015.0
20260505091950 10 135 0.0 0.0 0.00 0.00 0.00 90 1015.0
20260505091447 10 135 0.0 0.0 0.00 0.00 0.00 90 1014.7
20260505090945 10 136 0.0 0.0 0.00 0.00 0.00 90 1015.0
20260505090443 10 136 0.0 0.0 0.00 0.00 0.00 90 1015.1
20260505085940 10 136 0.0 0.0 0.00 0.00 0.00 90 1015.1
20260505085438 10 136 0.0 0.0 0.00 0.00 0.00 90 1015.0
20260505084936 10 136 0.0 0.0 0.00 0.00 0.00 89 1015.2
20260505084434 10 136 0.0 0.0 0.00 0.00 0.00 88 1015.2
20260505083931 10 146 0.0 0.0 0.00 0.00 0.00 87 1015.4
20260505083428 10 146 0.0 0.0 0.00 0.00 0.00 87 1015.4
20260505082924 10 189 1.6 3.2 0.00 0.00 0.00 86 1015.3
20260505082420 10 175 0.0 0.0 0.00 0.00 0.00 87 1015.3
20260505081918 10 117 0.0 0.0 0.00 0.00 0.00 86 1015.4
20260505081415 10 117 0.0 0.0 0.00 0.00 0.00 86 1015.2
20260505080911 11 108 0.0 0.0 0.00 0.00 0.00 85 1015.1
20260505080407 11 108 0.0 0.0 0.00 0.00 0.00 84 1015.3
20260505075903 11 108 0.0 0.0 0.00 0.00 0.00 84 1015.2
20260505075359 11 108 0.0 0.0 0.00 0.00 0.00 83 1015.1
20260505074857 11 108 0.0 0.0 0.00 0.00 0.00 83 1015.1
20260505074354 11 108 0.0 0.0 0.00 0.00 0.00 82 1015.1
20260505073851 11 108 0.0 0.0 0.00 0.00 0.00 82 1015.3
20260505073344 11 108 0.0 1.6 0.00 0.00 0.00 81 1015.1
20260505072840 12 108 0.0 0.0 0.00 0.00 0.00 80 1015.0
20260505072336 12 108 0.0 0.0 0.00 0.00 0.00 79 1015.2
20260505071832 12 108 0.0 0.0 0.00 0.00 0.00 78 1015.3
20260505071329 12 108 1.6 1.6 0.00 0.00 0.00 77 1015.2
20260505070827 12 139 0.0 0.0 0.00 0.00 0.00 76 1015.1
20260505070323 13 139 0.0 1.6 0.00 0.00 0.00 77 1015.2
20260505065818 13 139 0.0 0.0 0.00 0.00 0.00 74 1015.3
20260505065315 13 139 0.0 0.0 0.00 0.00 0.00 73 1015.2
20260505064813 13 139 0.0 0.0 0.00 0.00 0.00 70 1015.1
20260505064309 13 139 0.0 0.0 0.00 0.00 0.00 70 1015.3
20260505063808 13 139 0.0 0.0 0.00 0.00 0.00 70 1015.4
20260505063303 13 139 0.0 0.0 0.00 0.00 0.00 69 1015.3
20260505062800 14 139 0.0 0.0 0.00 0.00 0.00 69 1015.3
20260505062258 14 139 0.0 0.0 0.00 0.00 0.00 69 1015.3
20260505061754 14 139 0.0 0.0 0.00 0.00 0.00 68 1015.3
20260505061252 14 139 0.0 0.0 0.00 0.00 0.00 67 1015.4
20260505060749 14 139 0.0 0.0 0.00 0.00 0.00 66 1015.2
20260505060246 14 139 0.0 0.0 0.00 0.00 0.00 67 1015.2
20260505041336 15 139 0.0 0.0 0.00 0.00 0.00 65 1015.8
20260505040833 15 139 0.0 0.0 0.00 0.00 0.00 67 1015.6
20260505040331 16 139 0.0 0.0 0.00 0.00 0.00 65 1015.6
20260505035828 16 139 0.0 0.0 0.00 0.00 0.00 63 1015.4
20260505035323 16 139 0.0 0.0 0.00 0.00 0.00 63 1015.7
20260505034821 17 139 0.0 1.6 0.00 0.00 0.00 60 1015.6
20260505034317 17 132 0.0 0.0 0.00 0.00 0.00 59 1015.8
20260505033815 16 132 0.0 0.0 0.00 0.00 0.00 61 1015.7
20260505033311 16 132 0.0 0.0 0.00 0.00 0.00 60 1015.9
20260505032810 16 132 0.0 0.0 0.00 0.00 0.00 62 1015.7
20260505032305 16 132 0.0 0.0 0.00 0.00 0.00 63 1015.8
20260505031803 16 132 0.0 0.0 0.00 0.00 0.00 63 1015.7
20260505031259 16 132 0.0 0.0 0.00 0.00 0.00 62 1015.5
20260505030757 16 132 0.0 0.0 0.00 0.00 0.00 61 1015.7
20260505030253 17 132 0.0 0.0 0.00 0.00 0.00 61 1015.5
20260505025748 17 132 0.0 0.0 0.00 0.00 0.00 61 1015.6
20260505025246 16 132 0.0 0.0 0.00 0.00 0.00 60 1015.6
20260505024744 16 132 0.0 0.0 0.00 0.00 0.00 61 1015.6
20260505024241 16 132 0.0 0.0 0.00 0.00 0.00 61 1015.4
20260505023738 16 132 0.0 0.0 0.00 0.00 0.00 60 1015.5
20260505023236 16 132 0.0 0.0 0.00 0.00 0.00 60 1015.5
20260505022733 17 132 0.0 0.0 0.00 0.00 0.00 59 1015.5
20260505022230 16 151 0.0 0.0 0.00 0.00 0.00 60 1015.5
20260505021726 17 132 0.0 0.0 0.00 0.00 0.00 61 1015.4
20260505021223 17 151 0.0 0.0 0.00 0.00 0.00 60 1015.4
20260505020719 17 132 0.0 0.0 0.00 0.00 0.00 60 1015.3
20260505020214 17 132 0.0 0.0 0.00 0.00 0.00 62 1015.4
20260505015712 17 132 0.0 0.0 0.00 0.00 0.00 61 1015.2
20260505015209 17 132 0.0 0.0 0.00 0.00 0.00 61 1015.3
20260505014706 17 132 0.0 0.0 0.00 0.00 0.00 61 1015.1
20260505014203 17 132 0.0 0.0 0.00 0.00 0.00 61 1015.1
20260505013659 17 132 0.0 0.0 0.00 0.00 0.00 61 1015.2
20260505013157 17 132 0.0 0.0 0.00 0.00 0.00 61 1015.1
20260505012655 17 150 0.0 0.0 0.00 0.00 0.00 62 1015.1
20260505012147 17 150 0.0 0.0 0.00 0.00 0.00 62 1015.3
20260505011642 17 132 0.0 0.0 0.00 0.00 0.00 62 1014.9
20260505011140 18 132 0.0 0.0 0.00 0.00 0.00 62 1014.8
20260505010640 18 132 0.0 0.0 0.00 0.00 0.00 62 1014.9
20260505010137 18 132 0.0 0.0 0.00 0.00 0.00 60 1015.0
20260505005632 18 132 0.0 0.0 0.00 0.00 0.00 59 1014.9
20260505005130 18 132 0.0 0.0 0.00 0.00 0.00 59 1015.1
20260505004627 19 132 0.0 0.0 0.00 0.00 0.00 58 1015.0
20260505004123 20 132 0.0 0.0 0.00 0.00 0.00 58 1015.1
20260505003621 20 132 0.0 0.0 0.00 0.00 0.00 57 1014.9
20260505003118 20 132 0.0 0.0 0.00 0.00 0.00 54 1014.9
20260505002614 21 132 0.0 0.0 0.00 0.00 0.00 52 1015.0
20260505002113 21 132 0.0 0.0 0.00 0.00 0.00 50 1014.8
20260505001609 22 132 0.0 0.0 0.00 0.00 0.00 49 1014.8
20260505001107 22 132 0.0 0.0 0.00 0.00 0.00 47 1014.9
20260505000604 22 132 0.0 0.0 0.00 0.00 0.00 46 1014.8
20260504235558 23 132 0.0 0.0 0.00 0.00 0.00 46 1014.8
20260504235054 23 132 0.0 0.0 0.00 0.00 0.00 46 1014.8
20260504234551 23 132 0.0 0.0 0.00 0.00 0.00 44 1014.7
20260504234049 23 132 0.0 0.0 0.00 0.00 0.00 43 1014.7
20260504233544 24 132 0.0 0.0 0.00 0.00 0.00 44 1014.7
20260504233041 24 132 0.0 0.0 0.00 0.00 0.00 41 1014.8
20260504232538 25 132 0.0 0.0 0.00 0.00 0.00 42 1014.8
20260504232036 25 131 0.0 0.0 0.00 0.00 0.00 41 1014.8
20260504231532 25 126 0.0 0.0 0.00 0.00 0.00 41 1014.7
20260504231028 25 130 0.0 3.2 0.00 0.00 0.00 41 1015.0
20260504230524 25 130 1.6 3.2 0.00 0.00 0.00 41 1014.8
20260504230024 25 130 0.0 0.0 0.00 0.00 0.00 46 1014.7
20260504225520 25 130 0.0 1.6 0.00 0.00 0.00 44 1014.7
20260504225017 25 146 0.0 3.2 0.00 0.00 0.00 43 1014.9
20260504224514 24 130 0.0 0.0 0.00 0.00 0.00 45 1014.7
20260504224011 24 130 0.0 0.0 0.00 0.00 0.00 44 1014.8
20260504223508 24 130 0.0 0.0 0.00 0.00 0.00 43 1014.9
20260504223004 24 130 0.0 0.0 0.00 0.00 0.00 43 1014.9
20260504222500 24 130 0.0 1.6 0.00 0.00 0.00 45 1015.0
20260504221958 25 130 0.0 1.6 0.00 0.00 0.00 41 1015.1
20260504221455 25 129 1.6 1.6 0.00 0.00 0.00 42 1015.1
20260504220952 25 113 0.0 6.4 0.00 0.00 0.00 42 1014.8
20260504220448 25 107 0.0 0.0 0.00 0.00 0.00 42 1014.9
20260504215945 25 97 0.0 3.2 0.00 0.00 0.00 42 1015.0
20260504215442 25 211 0.0 0.0 0.00 0.00 0.00 43 1014.9
20260504214939 25 110 1.6 1.6 0.00 0.00 0.00 44 1014.8
20260504214435 25 115 3.2 6.4 0.00 0.00 0.00 45 1014.9
20260504213932 25 4 0.0 1.6 0.00 0.00 0.00 47 1014.8
20260504213428 25 100 1.6 3.2 0.00 0.00 0.00 44 1015.0
20260504212926 24 121 0.0 0.0 0.00 0.00 0.00 46 1015.1
20260504212421 23 120 1.6 6.4 0.00 0.00 0.00 46 1015.1
20260504211919 24 157 1.6 3.2 0.00 0.00 0.00 46 1015.1
20260504211415 25 165 0.0 3.2 0.00 0.00 0.00 44 1015.0
20260504210912 25 142 3.2 4.8 0.00 0.00 0.00 43 1014.9
20260504210409 25 146 1.6 1.6 0.00 0.00 0.00 44 1015.1
20260504205907 24 145 0.0 3.2 0.00 0.00 0.00 43 1015.0
20260504205404 24 131 1.6 6.4 0.00 0.00 0.00 42 1015.1
20260504204902 25 151 3.2 4.8 0.00 0.00 0.00 41 1015.2
20260504204400 25 147 1.6 3.2 0.00 0.00 0.00 40 1015.2
20260504203900 25 134 0.0 4.8 0.00 0.00 0.00 44 1015.1
20260504203356 25 155 1.6 9.7 0.00 0.00 0.00 43 1015.1
20260504202852 25 132 1.6 3.2 0.00 0.00 0.00 44 1015.1
20260504202349 24 174 3.2 9.7 0.00 0.00 0.00 43 1015.1
20260504201845 25 194 4.8 12.9 0.00 0.00 0.00 44 1015.3
20260504201343 26 97 1.6 3.2 0.00 0.00 0.00 43 1015.3
20260504200840 25 129 1.6 3.2 0.00 0.00 0.00 41 1015.4
20260504200337 25 124 0.0 1.6 0.00 0.00 0.00 45 1015.4
20260504195833 25 98 0.0 0.0 0.00 0.00 0.00 45 1015.4
20260504195329 25 156 3.2 3.2 0.00 0.00 0.00 42 1015.6
20260504194826 25 180 6.4 6.4 0.00 0.00 0.00 40 1015.9
20260504194322 25 217 0.0 3.2 0.00 0.00 0.00 41 1015.7
20260504193818 25 52 1.6 3.2 0.00 0.00 0.00 43 1015.9
20260504193316 25 124 4.8 6.4 0.00 0.00 0.00 43 1015.8
20260504192814 25 102 0.0 4.8 0.00 0.00 0.00 46 1015.8
20260504192312 25 18 0.0 0.0 0.00 0.00 0.00 48 1016.0
20260504191810 24 18 0.0 0.0 0.00 0.00 0.00 49 1016.1
20260504191307 24 131 0.0 0.0 0.00 0.00 0.00 46 1016.3
20260504190803 24 131 0.0 3.2 0.00 0.00 0.00 46 1016.3
20260504190259 23 145 0.0 0.0 0.00 0.00 0.00 49 1016.3
20260504185755 24 145 0.0 4.8 0.00 0.00 0.00 46 1016.5
20260504185253 23 149 0.0 3.2 0.00 0.00 0.00 46 1016.4
20260504184749 24 200 1.6 4.8 0.00 0.00 0.00 48 1016.4
20260504184244 23 169 6.4 9.7 0.00 0.00 0.00 46 1016.6
20260504183740 23 203 3.2 4.8 0.00 0.00 0.00 49 1016.6
20260504183237 23 221 3.2 9.7 0.00 0.00 0.00 47 1016.4
20260504182736 23 164 0.0 3.2 0.00 0.00 0.00 45 1016.8
20260504182232 23 142 3.2 4.8 0.00 0.00 0.00 51 1016.6
20260504181730 23 9 8.0 11.3 0.00 0.00 0.00 48 1016.8
20260504181227 23 4 0.0 0.0 0.00 0.00 0.00 49 1016.9
20260504180726 23 110 0.0 3.2 0.00 0.00 0.00 50 1016.8
20260504180225 22 219 0.0 3.2 0.00 0.00 0.00 47 1017.0
20260504175722 22 192 6.4 9.7 0.00 0.00 0.00 48 1017.0
20260504175218 22 186 3.2 3.2 0.00 0.00 0.00 49 1017.1
20260504174716 22 120 3.2 3.2 0.00 0.00 0.00 51 1017.2
20260504174214 22 119 3.2 4.8 0.00 0.00 0.00 48 1017.3